Wind_Speed
27 26 26 28 28 26 25 22 21 21 20 18 16 16 15 16 14 13 11 10 9 12 14 14 15 16 17 16 15 13 11 10 9 7 5 1 3 7 11 14 16 18 20 20
27 25 25 27 28 28 28 25 22 21 20 17 15 14 15 15 15 12 10 8 7 9 12 13 14 15 15 13 12 10 9 8 6 5 3 4 7 9 11 14 16 19 21 20
26 25 24 24 24 24 25 24 21 20 22 21 19 18 17 16 15 12 9 8 9 10 11 11 11 11 10 10 9 8 7 5 5 5 6 8 9 11 13 15 17 20 21 21
24 24 23 22 22 22 23 25 22 20 21 22 22 21 19 18 17 15 14 14 14 15 14 13 12 11 10 9 8 8 7 7 8 9 10 11 13 14 16 18 20 21 22 22
21 21 20 20 20 20 21 22 22 21 21 21 22 22 20 19 17 16 16 15 14 13 12 12 11 11 11 11 10 10 10 10 10 11 12 13 14 15 17 18 19 20 21 20
22 18 17 17 16 17 17 18 19 19 20 21 22 21 18 18 17 15 14 13 12 12 12 12 13 13 13 13 13 12 11 11 11 11 12 14 14 15 16 16 17 18 19 19
25 18 14 14 13 13 14 15 15 17 18 20 19 18 16 16 16 15 14 12 12 12 13 14 14 14 13 13 12 12 11 12 13 14 15 15 15 15 16 16 16 16 16 18
30 23 16 13 11 12 11 11 12 13 15 16 16 16 16 16 16 15 15 14 14 15 15 15 15 14 14 13 12 12 12 14 15 16 16 16 17 17 17 16 15 14 14 14
32 29 23 17 12 11 10 10 11 12 12 12 13 13 14 14 14 15 16 16 15 16 15 15 15 14 14 13 12 13 14 15 17 18 18 18 19 19 19 18 17 16 15 14
30 31 28 22 15 11 10 10 11 11 11 10 10 11 11 11 11 14 16 16 15 15 16 16 16 15 14 13 13 14 15 17 19 20 20 20 20 20 20 20 20 19 18 16
26 28 29 27 20 14 10 9 10 11 11 10 8 8 9 8 8 10 13 14 14 14 15 16 16 15 14 14 13 14 15 17 19 19 20 21 21 22 22 22 21 21 19 18
23 25 27 27 25 20 13 9 7 7 9 10 9 6 6 7 7 8 10 11 12 13 13 14 14 15 14 14 14 14 14 16 17 19 20 21 22 23 24 24 24 24 21 18
17 21 23 24 25 24 20 13 8 5 5 7 7 5 4 4 6 6 7 8 10 11 12 13 13 14 15 15 14 14 15 15 16 17 19 20 22 23 25 27 29 28 24 19
11 15 19 21 22 23 23 19 14 8 5 4 4 3 2 2 3 3 3 4 6 8 9 11 12 14 15 15 15 15 15 16 16 17 18 19 21 23 25 28 30 30 28 26
9 11 14 17 18 18 19 20 18 15 11 7 4 3 3 3 3 3 3 3 3 4 6 9 10 12 14 15 15 15 14 15 16 16 17 18 20 22 24 26 27 29 29 29
12 11 12 13 15 15 14 15 17 17 16 14 9 5 4 4 4 5 5 5 4 3 3 6 8 11 13 14 15 14 14 15 16 16 16 16 18 19 21 23 25 26 27 27
16 14 12 12 12 13 12 11 12 14 15 15 12 9 6 6 7 7 8 8 6 5 3 3 5 8 10 12 13 13 14 15 16 16 15 15 15 16 18 20 22 23 23 24
17 16 14 13 12 12 11 10 10 12 13 14 14 12 10 8 8 9 11 10 9 8 6 3 3 5 7 9 10 11 12 14 16 16 16 15 14 14 15 17 19 20 21 21
17 16 15 14 13 12 11 11 10 10 12 14 14 14 13 12 12 13 14 13 11 10 8 6 3 3 4 6 7 8 10 12 15 16 16 16 15 14 14 14 16 17 18 19
19 17 16 15 14 14 13 13 12 11 11 13 15 16 16 17 17 18 19 16 12 10 9 7 5 3 2 3 5 6 7 9 12 14 15 15 15 14 14 13 14 14 15 16
21 18 17 17 17 16 15 15 15 14 13 13 15 17 18 20 21 22 21 14 6 8 9 9 8 5 3 1 3 3 4 6 9 12 14 16 15 14 13 13 13 13 13 13
23 21 20 20 20 19 19 18 18 18 17 16 16 17 18 19 21 22 19 10 2 7 10 10 9 7 5 2 1 2 3 4 6 9 11 14 15 14 13 12 12 12 12 12
26 24 23 22 22 23 22 20 20 20 20 19 18 17 17 16 17 17 14 7 3 6 9 10 10 8 6 4 3 3 4 4 5 7 9 11 12 13 13 12 11 11 11 11
31 28 27 25 25 25 25 23 22 22 21 21 20 19 17 15 14 13 11 5 2 5 7 8 9 9 8 6 5 5 4 5 5 6 7 8 9 11 11 11 11 10 11 11
36 34 32 30 29 28 26 25 24 23 22 21 21 20 19 17 15 12 10 7 5 6 7 8 9 9 9 9 8 8 7 6 6 6 6 7 8 9 9 9 9 10 10 9
41 39 37 35 33 31 29 28 27 26 24 22 21 21 21 19 17 15 11 9 7 8 9 10 11 12 12 12 12 12 11 10 9 9 8 7 8 8 9 9 9 9 9 9
46 44 42 40 38 36 34 32 30 28 26 24 23 23 23 23 21 18 15 13 11 10 11 12 14 15 16 16 15 15 15 15 13 12 12 11 9 9 9 10 9 9 9 9
Wind_Direction
35 37 36 35 35 34 36 43 52 59 68 72 65 66 86 103 120 134 118 104 81 60 52 48 49 50 54 63 73 78 85 93 96 94 94 103 266 269 271 274 275 275 274 272
33 34 34 35 34 33 38 47 63 68 66 66 69 70 80 93 107 121 114 96 65 52 49 53 56 58 56 63 70 75 79 80 74 55 10 318 298 287 280 276 275 273 269 266
31 32 34 35 34 34 39 47 60 64 62 65 72 75 77 81 86 94 96 71 58 56 59 62 63 58 51 49 50 53 52 39 14 345 320 303 291 281 275 273 274 275 274 272
29 31 34 37 43 46 51 53 55 61 65 68 72 73 71 71 73 77 78 76 72 68 65 61 56 51 45 40 35 29 18 1 343 330 319 309 299 289 284 282 281 282 283 281
24 29 33 39 47 54 59 59 56 58 65 68 71 72 70 71 73 76 76 73 68 63 58 52 46 40 34 28 22 14 5 355 346 338 329 322 313 305 297 292 287 284 283 282
24 26 31 36 45 53 59 59 54 56 62 65 65 64 63 65 67 67 66 63 58 51 46 42 41 39 37 33 26 19 12 5 357 349 343 337 332 326 317 308 299 291 285 281
29 32 35 41 49 54 56 58 54 54 59 60 56 53 56 63 65 62 57 51 43 35 31 28 27 28 30 28 23 20 17 11 7 3 360 357 353 347 338 330 320 308 296 288
31 35 39 48 55 60 62 63 60 59 62 60 56 55 60 63 60 53 44 35 29 24 22 22 25 29 30 29 27 25 21 18 16 15 13 10 4 359 354 349 342 331 320 309
34 36 40 48 57 65 69 71 69 67 66 62 59 59 60 59 52 43 35 32 32 31 32 36 38 39 37 34 32 31 30 28 26 25 22 16 9 4 360 356 352 348 342 331
36 38 40 44 53 63 70 72 70 66 64 62 58 56 56 53 47 39 34 37 39 39 43 44 43 41 40 40 40 39 36 33 31 27 22 16 9 3 358 354 349 344 339 332
36 38 39 41 45 52 63 71 65 56 51 48 51 53 51 51 47 39 37 38 40 42 45 44 43 42 44 45 44 39 36 34 31 26 21 15 10 6 3 -0 356 349 343 335
31 35 38 39 40 41 46 59 61 51 42 38 41 43 37 34 32 30 31 34 37 41 44 45 44 43 43 40 36 33 31 30 28 24 21 17 14 12 11 9 5 359 353 347
22 27 31 34 37 38 38 43 48 42 26 21 28 34 25 16 16 15 17 26 33 39 41 41 41 39 38 35 31 28 27 27 27 26 24 23 20 18 18 17 16 16 19 23
0 14 19 23 30 35 37 37 38 34 16 1 1 9 10 355 353 351 353 13 31 39 39 36 34 34 33 32 29 27 27 29 30 30 30 30 27 25 24 24 26 31 38 46
322 344 359 7 15 27 36 38 39 37 31 18 353 325 312 301 304 310 308 316 354 30 39 36 33 32 31 31 31 29 29 32 35 35 34 32 31 31 31 32 33 38 45 51
291 308 327 345 356 7 23 35 38 38 38 35 26 1 321 303 300 299 292 286 289 320 16 31 32 30 27 29 32 31 29 32 34 32 30 30 32 33 35 37 39 42 47 52
279 287 301 319 334 344 357 14 25 27 27 29 28 19 357 323 306 299 293 288 285 285 301 0 26 27 24 26 33 34 33 33 32 31 28 28 31 34 37 38 40 43 48 53
277 279 284 295 309 319 330 344 0 10 14 16 16 13 3 342 317 303 300 301 297 290 282 290 351 19 20 25 36 40 36 34 33 31 29 26 28 32 35 38 41 43 46 50
277 278 278 280 288 295 302 313 328 346 357 0 1 1 356 345 330 317 311 308 302 293 281 271 284 338 9 26 41 45 39 34 33 30 28 25 25 28 31 35 39 43 46 49
276 274 272 271 276 280 283 289 300 317 335 347 350 351 350 347 340 329 323 316 296 276 267 255 252 267 317 22 46 50 40 31 30 28 25 22 21 23 28 34 38 41 44 48
272 268 264 264 266 271 274 277 284 293 306 321 334 342 346 349 351 346 342 336 294 240 235 233 231 235 253 327 38 45 36 25 21 21 20 19 19 20 22 26 32 36 38 42
268 265 261 259 260 264 268 270 274 279 286 297 310 323 335 346 353 356 358 8 119 188 200 209 215 222 234 257 341 13 11 8 6 6 10 15 17 19 20 20 23 29 34 36
264 263 261 259 259 260 262 265 269 273 277 283 292 303 316 332 347 357 3 18 125 178 190 199 207 216 229 248 282 326 346 350 354 355 358 4 11 15 16 16 18 23 29 32
263 263 262 261 260 259 259 262 264 268 272 277 282 288 296 310 328 343 350 344 223 199 198 203 208 215 228 248 271 290 312 331 341 346 348 350 356 5 10 11 10 12 17 22
260 261 260 259 258 258 259 259 259 261 265 271 275 278 281 289 302 317 329 321 275 241 226 221 220 225 236 252 268 278 286 296 311 326 336 338 338 341 351 359 2 2 4 8
257 258 259 258 257 256 254 254 255 256 257 261 266 269 271 274 281 292 301 302 288 264 249 242 239 241 250 261 268 272 275 280 287 295 305 315 322 324 325 333 344 351 354 355
256 257 258 257 256 254 252 251 252 254 255 256 258 261 263 265 267 274 281 284 283 275 265 259 256 256 258 262 266 269 271 273 276 280 285 289 296 306 311 313 318 329 336 341
Height
5824 5819 5814 5808 5803 5798 5793 5789 5785 5783 5781 5780 5780 5779 5778 5779 5780 5782 5783 5783 5784 5784 5783 5782 5782 5781 5780 5780 5781 5782 5783 5783 5783 5783 5783 5783 5784 5784 5783 5783 5782 5782 5781 5780
5828 5823 5819 5813 5808 5804 5799 5795 5792 5790 5788 5785 5784 5783 5783 5783 5783 5785 5785 5787 5787 5787 5787 5786 5785 5785 5784 5784 5784 5784 5783 5783 5783 5783 5783 5783 5782 5781 5781 5780 5779 5778 5777 5776
5832 5827 5823 5819 5814 5810 5806 5802 5799 5796 5795 5791 5789 5789 5788 5788 5788 5789 5790 5791 5791 5791 5790 5790 5789 5788 5787 5786 5785 5785 5784 5784 5784 5784 5783 5782 5781 5780 5779 5777 5775 5773 5771 5770
5836 5832 5827 5826 5819 5816 5812 5809 5806 5804 5801 5798 5796 5796 5795 5795 5795 5795 5795 5795 5795 5794 5793 5793 5792 5790 5789 5788 5787 5786 5786 5785 5784 5783 5782 5780 5779 5777 5775 5772 5770 5767 5765 5763
5839 5835 5831 5828 5824 5821 5818 5815 5814 5811 5809 5806 5805 5803 5803 5802 5801 5800 5800 5799 5798 5797 5796 5795 5794 5792 5791 5789 5788 5787 5786 5785 5784 5782 5780 5778 5776 5773 5770 5767 5765 5762 5759 5757
5841 5837 5834 5832 5828 5825 5824 5821 5819 5817 5815 5813 5811 5810 5810 5808 5806 5805 5804 5803 5802 5800 5799 5797 5795 5793 5792 5791 5789 5788 5786 5785 5783 5781 5778 5775 5772 5769 5766 5763 5760 5757 5754 5752
5842 5838 5836 5833 5830 5829 5828 5827 5824 5822 5820 5818 5816 5816 5815 5812 5811 5810 5809 5807 5805 5803 5801 5799 5797 5795 5793 5792 5790 5789 5788 5786 5783 5780 5776 5772 5769 5766 5763 5759 5756 5752 5750 5748
5845 5840 5840 5834 5832 5832 5831 5828 5827 5826 5824 5822 5821 5820 5818 5817 5815 5814 5812 5810 5807 5805 5802 5800 5798 5796 5794 5793 5792 5790 5788 5786 5782 5778 5775 5771 5768 5764 5761 5756 5752 5749 5745 5742
5851 5847 5841 5837 5835 5833 5832 5831 5830 5829 5827 5826 5825 5824 5822 5820 5819 5817 5815 5812 5810 5807 5805 5803 5801 5799 5797 5796 5794 5792 5789 5786 5782 5778 5774 5771 5767 5763 5758 5754 5749 5745 5741 5738
5855 5850 5845 5840 5837 5835 5834 5833 5832 5831 5830 5829 5828 5827 5826 5824 5822 5820 5818 5815 5813 5810 5808 5806 5804 5802 5800 5798 5796 5794 5790 5786 5782 5778 5774 5771 5766 5762 5757 5752 5747 5742 5738 5735
5859 5855 5850 5845 5841 5838 5836 5835 5834 5833 5832 5830 5829 5829 5828 5826 5824 5822 5820 5818 5815 5813 5810 5808 5806 5805 5803 5800 5798 5795 5792 5788 5784 5780 5776 5772 5767 5762 5757 5751 5746 5741 5736 5731
5863 5859 5855 5851 5846 5842 5839 5837 5835 5834 5833 5832 5830 5829 5827 5826 5825 5823 5822 5820 5817 5815 5812 5810 5808 5806 5804 5802 5799 5796 5793 5790 5786 5782 5778 5774 5769 5764 5758 5753 5746 5739 5732 5727
5865 5861 5858 5854 5849 5845 5842 5839 5837 5835 5833 5832 5830 5829 5828 5826 5825 5824 5822 5821 5819 5816 5814 5812 5809 5807 5805 5803 5800 5797 5794 5791 5787 5783 5780 5776 5772 5767 5761 5755 5747 5739 5731 5726
5865 5863 5860 5856 5853 5849 5845 5841 5838 5835 5833 5831 5829 5828 5827 5826 5824 5823 5822 5820 5819 5817 5815 5812 5810 5808 5806 5804 5801 5799 5796 5793 5789 5786 5782 5779 5775 5770 5765 5759 5752 5745 5738 5732
5864 5862 5860 5857 5854 5851 5848 5844 5841 5837 5834 5831 5829 5827 5826 5825 5824 5822 5821 5820 5818 5817 5815 5813 5811 5809 5807 5805 5803 5800 5798 5795 5791 5788 5785 5781 5777 5773 5769 5764 5758 5752 5746 5741
5861 5860 5858 5857 5854 5852 5849 5846 5842 5839 5835 5832 5829 5827 5825 5824 5822 5821 5820 5818 5817 5816 5815 5813 5811 5810 5808 5806 5804 5802 5799 5797 5794 5791 5788 5784 5780 5777 5773 5769 5764 5759 5755 5750
5857 5857 5856 5855 5853 5851 5849 5846 5843 5840 5837 5833 5830 5827 5825 5823 5821 5819 5818 5817 5816 5815 5814 5813 5811 5810 5809 5807 5805 5803 5801 5798 5796 5793 5790 5787 5783 5780 5776 5773 5769 5765 5762 5758
5853 5853 5852 5851 5850 5849 5847 5845 5843 5840 5837 5834 5831 5828 5825 5822 5820 5818 5816 5815 5815 5814 5813 5813 5811 5810 5809 5808 5807 5805 5803 5800 5798 5796 5793 5790 5786 5783 5780 5777 5773 5770 5767 5763
5848 5847 5847 5846 5846 5845 5844 5843 5841 5839 5836 5833 5830 5827 5824 5821 5818 5816 5814 5813 5812 5812 5812 5812 5811 5810 5809 5808 5807 5806 5804 5802 5800 5797 5795 5792 5789 5786 5783 5780 5777 5774 5772 5769
5841 5842 5841 5841 5840 5840 5840 5839 5838 5837 5835 5832 5829 5826 5823 5820 5816 5813 5810 5808 5807 5808 5809 5809 5810 5810 5810 5809 5807 5806 5805 5803 5801 5799 5797 5794 5791 5789 5786 5783 5780 5778 5775 5773
5834 5834 5835 5835 5835 5835 5835 5835 5834 5834 5832 5830 5828 5825 5822 5818 5814 5810 5806 5802 5802 5803 5805 5807 5808 5809 5809 5809 5808 5807 5806 5804 5803 5801 5798 5796 5793 5790 5788 5786 5783 5781 5778 5776
5826 5826 5827 5828 5828 5828 5828 5829 5829 5829 5828 5827 5825 5823 5821 5818 5814 5810 5805 5802 5800 5801 5802 5804 5806 5807 5808 5808 5808 5807 5806 5805 5804 5802 5799 5797 5794 5792 5790 5787 5785 5783 5781 5779
5817 5818 5819 5820 5821 5821 5822 5822 5822 5823 5823 5823 5822 5820 5818 5816 5814 5811 5807 5804 5802 5802 5802 5803 5805 5806 5807 5808 5808 5807 5806 5805 5803 5802 5800 5798 5795 5793 5791 5789 5786 5785 5783 5781
5807 5809 5810 5811 5813 5813 5814 5815 5815 5816 5816 5817 5817 5816 5815 5813 5812 5810 5808 5806 5804 5803 5803 5803 5804 5805 5806 5806 5806 5806 5805 5804 5803 5801 5799 5798 5796 5793 5791 5789 5788 5786 5784 5782
5796 5798 5800 5801 5802 5804 5806 5807 5808 5808 5809 5810 5810 5810 5810 5809 5808 5807 5806 5805 5804 5803 5803 5803 5803 5803 5804 5804 5804 5804 5803 5802 5802 5800 5799 5797 5795 5794 5792 5790 5788 5786 5784 5783
5782 5785 5788 5790 5792 5793 5795 5797 5799 5800 5801 5802 5803 5803 5803 5803 5803 5803 5802 5801 5801 5800 5800 5800 5800 5800 5801 5801 5801 5801 5800 5800 5799 5798 5797 5796 5794 5793 5791 5789 5787 5786 5784 5782
5768 5771 5774 5777 5780 5781 5783 5786 5788 5790 5792 5793 5794 5795 5796 5796 5796 5797 5797 5797 5796 5795 5795 5795 5795 5795 5796 5796 5796 5796 5796 5796 5795 5795 5794 5793 5792 5791 5789 5788 5787 5785 5783 5782